| time (UTC) | temp F | wind direction | speed MPH | gust MPH | rain 1hr in | rain 24hr in | rain mn in | humidity % | barometer mb |
| 20260510174045 | 91 | 0.0 | 0.0 | 0.00 | 0.00 | 0.00 | 22 | 1013.6 | |
| 20260510173021 | 90 | 0.0 | 0.0 | 0.00 | 0.00 | 0.00 | 19 | 1013.2 | |
| 20260510172020 | 89 | 0.0 | 0.0 | 0.00 | 0.00 | 0.00 | 19 | 1013.2 | |
| 20260510171020 | 89 | 0.0 | 0.0 | 0.00 | 0.00 | 0.00 | 20 | 1013.1 | |
| 20260510170020 | 89 | 0.0 | 0.0 | 0.00 | 0.00 | 0.00 | 20 | 1013.1 | |
| 20260510165020 | 88 | 0.0 | 0.0 | 0.00 | 0.00 | 0.00 | 22 | 1013.1 | |
| 20260510164020 | 88 | 0.0 | 0.0 | 0.00 | 0.00 | 0.00 | 21 | 1012.9 | |
| 20260510163020 | 87 | 0.0 | 0.0 | 0.00 | 0.00 | 0.00 | 22 | 1012.9 | |
| 20260510162020 | 87 | 0.0 | 0.0 | 0.00 | 0.00 | 0.00 | 22 | 1013.1 | |
| 20260510161020 | 86 | 0.0 | 0.0 | 0.00 | 0.00 | 0.00 | 23 | 1013.1 | |
| 20260510160020 | 85 | 0.0 | 0.0 | 0.00 | 0.00 | 0.00 | 26 | 1013.0 | |
| 20260510155020 | 84 | 0.0 | 0.0 | 0.00 | 0.00 | 0.00 | 29 | 1012.6 | |
| 20260510154020 | 83 | 0.0 | 0.0 | 0.00 | 0.00 | 0.00 | 30 | 1012.5 | |
| 20260510153021 | 83 | 0.0 | 0.0 | 0.00 | 0.00 | 0.00 | 31 | 1012.8 | |
| 20260510152020 | 82 | 0.0 | 0.0 | 0.00 | 0.00 | 0.00 | 34 | 1012.6 | |
| 20260510151023 | 81 | 0.0 | 0.0 | 0.00 | 0.00 | 0.00 | 34 | 1012.3 | |
| 20260510150025 | 81 | 0.0 | 0.0 | 0.00 | 0.00 | 0.00 | 37 | 1012.3 | |
| 20260510145022 | 80 | 0.0 | 0.0 | 0.00 | 0.00 | 0.00 | 39 | 1012.3 | |
| 20260510144047 | 79 | 0.0 | 0.0 | 0.00 | 0.00 | 0.00 | 43 | 1012.3 | |
| 20260510143022 | 78 | 0.0 | 0.0 | 0.00 | 0.00 | 0.00 | 46 | 1012.2 | |
| 20260510142022 | 77 | 0.0 | 0.0 | 0.00 | 0.00 | 0.00 | 49 | 1012.2 | |
| 20260510141022 | 76 | 0.0 | 0.0 | 0.00 | 0.00 | 0.00 | 52 | 1011.9 | |
| 20260510140021 | 75 | 0.0 | 0.0 | 0.00 | 0.00 | 0.00 | 56 | 1011.8 | |
| 20260510135022 | 74 | 0.0 | 0.0 | 0.00 | 0.00 | 0.00 | 58 | 1011.8 | |
| 20260510134022 | 74 | 0.0 | 0.0 | 0.00 | 0.00 | 0.00 | 61 | 1011.9 | |
| 20260510133047 | 73 | 0.0 | 0.0 | 0.00 | 0.00 | 0.00 | 62 | 1011.7 | |
| 20260510132022 | 72 | 0.0 | 0.0 | 0.00 | 0.00 | 0.00 | 65 | 1011.7 | |
| 20260510131022 | 71 | 0.0 | 0.0 | 0.00 | 0.00 | 0.00 | 67 | 1011.5 | |
| 20260510130022 | 69 | 0.0 | 0.0 | 0.00 | 0.00 | 0.00 | 69 | 1011.2 | |
| 20260510125022 | 68 | 0.0 | 0.0 | 0.00 | 0.00 | 0.00 | 71 | 1011.2 | |
| 20260510124022 | 68 | 0.0 | 0.0 | 0.00 | 0.00 | 0.00 | 72 | 1011.0 | |
| 20260510123022 | 67 | 0.0 | 0.0 | 0.00 | 0.00 | 0.00 | 72 | 1011.1 | |
| 20260510122021 | 67 | 0.0 | 0.0 | 0.00 | 0.00 | 0.00 | 73 | 1011.1 | |
| 20260510121022 | 67 | 0.0 | 0.0 | 0.00 | 0.00 | 0.00 | 73 | 1011.1 | |
| 20260510120021 | 67 | 0.0 | 0.0 | 0.00 | 0.00 | 0.00 | 73 | 1011.0 | |
| 20260510115021 | 67 | 0.0 | 0.0 | 0.00 | 0.00 | 0.00 | 73 | 1011.0 | |
| 20260510114021 | 67 | 0.0 | 0.0 | 0.00 | 0.00 | 0.00 | 73 | 1010.8 | |
| 20260510113022 | 67 | 0.0 | 0.0 | 0.00 | 0.00 | 0.00 | 72 | 1010.9 | |
| 20260510112021 | 67 | 0.0 | 0.0 | 0.00 | 0.00 | 0.00 | 73 | 1010.7 | |
| 20260510111022 | 67 | 0.0 | 0.0 | 0.00 | 0.00 | 0.00 | 72 | 1010.6 | |
| 20260510110024 | 67 | 0.0 | 0.0 | 0.00 | 0.00 | 0.00 | 71 | 1010.5 | |
| 20260510105021 | 67 | 0.0 | 0.0 | 0.00 | 0.00 | 0.00 | 70 | 1010.6 | |
| 20260510104022 | 68 | 0.0 | 0.0 | 0.00 | 0.00 | 0.00 | 69 | 1010.6 | |
| 20260510103021 | 68 | 0.0 | 0.0 | 0.00 | 0.00 | 0.00 | 69 | 1010.6 | |
| 20260510102022 | 68 | 0.0 | 0.0 | 0.00 | 0.00 | 0.00 | 69 | 1010.5 | |
| 20260510101022 | 67 | 0.0 | 0.0 | 0.00 | 0.00 | 0.00 | 68 | 1010.3 | |
| 20260510100022 | 67 | 0.0 | 0.0 | 0.00 | 0.00 | 0.00 | 68 | 1010.4 | |
| 20260510095021 | 67 | 0.0 | 0.0 | 0.00 | 0.00 | 0.00 | 67 | 1010.1 | |
| 20260510094021 | 67 | 0.0 | 0.0 | 0.00 | 0.00 | 0.00 | 67 | 1010.1 | |
| 20260510093021 | 67 | 0.0 | 0.0 | 0.00 | 0.00 | 0.00 | 65 | 1010.1 | |
| 20260510092021 | 67 | 0.0 | 0.0 | 0.00 | 0.00 | 0.00 | 64 | 1010.2 | |
| 20260510091112 | 67 | 0.0 | 0.0 | 0.00 | 0.00 | 0.00 | 64 | 1010.2 | |
| 20260510090022 | 67 | 0.0 | 0.0 | 0.00 | 0.00 | 0.00 | 62 | 1010.2 | |
| 20260510085047 | 67 | 0.0 | 0.0 | 0.00 | 0.00 | 0.00 | 62 | 1010.1 | |
| 20260510084021 | 68 | 0.0 | 0.0 | 0.00 | 0.00 | 0.00 | 60 | 1010.2 | |
| 20260510083021 | 68 | 0.0 | 0.0 | 0.00 | 0.00 | 0.00 | 59 | 1010.4 | |
| 20260510082021 | 69 | 0.0 | 0.0 | 0.00 | 0.00 | 0.00 | 57 | 1010.5 | |
| 20260510081021 | 70 | 0.0 | 0.0 | 0.00 | 0.00 | 0.00 | 54 | 1010.6 | |
| 20260510080021 | 71 | 0.0 | 0.0 | 0.00 | 0.00 | 0.00 | 52 | 1010.9 | |
| 20260510075046 | 71 | 0.0 | 0.0 | 0.00 | 0.00 | 0.00 | 50 | 1010.8 | |
| 20260510074021 | 72 | 0.0 | 0.0 | 0.00 | 0.00 | 0.00 | 49 | 1011.0 | |
| 20260510073046 | 72 | 0.0 | 0.0 | 0.00 | 0.00 | 0.00 | 48 | 1011.1 | |
| 20260510072021 | 71 | 0.0 | 0.0 | 0.00 | 0.00 | 0.00 | 47 | 1011.0 | |
| 20260510071021 | 71 | 0.0 | 0.0 | 0.00 | 0.00 | 0.00 | 45 | 1011.0 | |
| 20260510070111 | 70 | 0.0 | 0.0 | 0.00 | 0.00 | 0.00 | 43 | 1010.7 | |
| 20260510065021 | 70 | 0.0 | 0.0 | 0.00 | 0.00 | 0.00 | 41 | 1010.8 | |
| 20260510064021 | 71 | 0.0 | 0.0 | 0.00 | 0.00 | 0.00 | 38 | 1010.9 | |
| 20260510063021 | 72 | 0.0 | 0.0 | 0.00 | 0.00 | 0.00 | 36 | 1010.8 | |
| 20260510062022 | 74 | 0.0 | 0.0 | 0.00 | 0.00 | 0.00 | 34 | 1011.0 | |
| 20260510061021 | 75 | 0.0 | 0.0 | 0.00 | 0.00 | 0.00 | 33 | 1011.0 | |
| 20260510060046 | 75 | 0.0 | 0.0 | 0.00 | 0.00 | 0.00 | 32 | 1011.1 | |
| 20260510055021 | 76 | 0.0 | 0.0 | 0.00 | 0.00 | 0.00 | 31 | 1011.1 | |
| 20260510054022 | 75 | 0.0 | 0.0 | 0.00 | 0.00 | 0.00 | 30 | 1011.1 | |
| 20260510053021 | 76 | 0.0 | 0.0 | 0.00 | 0.00 | 0.00 | 30 | 1011.0 | |
| 20260510052021 | 76 | 0.0 | 0.0 | 0.00 | 0.00 | 0.00 | 29 | 1010.9 | |
| 20260510051046 | 76 | 0.0 | 0.0 | 0.00 | 0.00 | 0.00 | 29 | 1011.0 | |
| 20260510050021 | 76 | 0.0 | 0.0 | 0.00 | 0.00 | 0.00 | 28 | 1010.9 | |
| 20260510045022 | 77 | 0.0 | 0.0 | 0.00 | 0.00 | 0.00 | 28 | 1011.2 | |
| 20260510044047 | 77 | 0.0 | 0.0 | 0.00 | 0.00 | 0.00 | 27 | 1010.9 | |
| 20260510043022 | 78 | 0.0 | 0.0 | 0.00 | 0.00 | 0.00 | 26 | 1010.8 | |
| 20260510042021 | 79 | 0.0 | 0.0 | 0.00 | 0.00 | 0.00 | 26 | 1010.7 | |
| 20260510041022 | 80 | 0.0 | 0.0 | 0.00 | 0.00 | 0.00 | 25 | 1010.8 | |
| 20260510040022 | 81 | 0.0 | 0.0 | 0.00 | 0.00 | 0.00 | 24 | 1010.6 | |
| 20260510035021 | 82 | 0.0 | 0.0 | 0.00 | 0.00 | 0.00 | 23 | 1010.3 | |
| 20260510034022 | 82 | 0.0 | 0.0 | 0.00 | 0.00 | 0.00 | 23 | 1010.3 | |
| 20260510033021 | 83 | 0.0 | 0.0 | 0.00 | 0.00 | 0.00 | 22 | 1010.1 | |
| 20260510032022 | 83 | 0.0 | 0.0 | 0.00 | 0.00 | 0.00 | 22 | 1009.9 | |
| 20260510031021 | 83 | 0.0 | 0.0 | 0.00 | 0.00 | 0.00 | 21 | 1009.7 | |
| 20260510030022 | 84 | 0.0 | 0.0 | 0.00 | 0.00 | 0.00 | 21 | 1009.5 | |
| 20260510025022 | 84 | 0.0 | 0.0 | 0.00 | 0.00 | 0.00 | 20 | 1009.5 | |
| 20260510024111 | 84 | 0.0 | 0.0 | 0.00 | 0.00 | 0.00 | 19 | 1009.2 | |
| 20260510023047 | 85 | 0.0 | 0.0 | 0.00 | 0.00 | 0.00 | 18 | 1008.9 | |
| 20260510022021 | 86 | 0.0 | 0.0 | 0.00 | 0.00 | 0.00 | 17 | 1008.9 | |
| 20260510021021 | 87 | 0.0 | 0.0 | 0.00 | 0.00 | 0.00 | 16 | 1008.7 | |
| 20260510020021 | 88 | 0.0 | 0.0 | 0.00 | 0.00 | 0.00 | 15 | 1008.5 | |
| 20260510015021 | 89 | 0.0 | 0.0 | 0.00 | 0.00 | 0.00 | 14 | 1008.4 | |
| 20260510014021 | 91 | 0.0 | 0.0 | 0.00 | 0.00 | 0.00 | 12 | 1008.4 | |
| 20260510013021 | 92 | 0.0 | 0.0 | 0.00 | 0.00 | 0.00 | 11 | 1008.2 | |
| 20260510012022 | 93 | 0.0 | 0.0 | 0.00 | 0.00 | 0.00 | 11 | 1008.1 | |
| 20260510011046 | 94 | 0.0 | 0.0 | 0.00 | 0.00 | 0.00 | 10 | 1008.1 | |
| 20260510010021 | 94 | 0.0 | 0.0 | 0.00 | 0.00 | 0.00 | 10 | 1008.1 | |
| 20260510005046 | 94 | 0.0 | 0.0 | 0.00 | 0.00 | 0.00 | 10 | 1008.0 | |
| 20260510004047 | 94 | 0.0 | 0.0 | 0.00 | 0.00 | 0.00 | 10 | 1007.9 | |
| 20260510003021 | 95 | 0.0 | 0.0 | 0.00 | 0.00 | 0.00 | 10 | 1008.0 | |
| 20260510002046 | 96 | 0.0 | 0.0 | 0.00 | 0.00 | 0.00 | 10 | 1008.2 | |
| 20260510001046 | 96 | 0.0 | 0.0 | 0.00 | 0.00 | 0.00 | 9 | 1008.2 | |
| 20260510000021 | 95 | 0.0 | 0.0 | 0.00 | 0.00 | 0.00 | 10 | 1008.2 | |
| 20260509235021 | 95 | 0.0 | 0.0 | 0.00 | 0.00 | 0.00 | 10 | 1008.3 | |
| 20260509234021 | 95 | 0.0 | 0.0 | 0.00 | 0.00 | 0.00 | 10 | 1008.3 | |
| 20260509233021 | 95 | 0.0 | 0.0 | 0.00 | 0.00 | 0.00 | 10 | 1008.4 | |
| 20260509232021 | 96 | 0.0 | 0.0 | 0.00 | 0.00 | 0.00 | 10 | 1008.5 | |
| 20260509231021 | 96 | 0.0 | 0.0 | 0.00 | 0.00 | 0.00 | 10 | 1008.6 | |
| 20260509230023 | 96 | 0.0 | 0.0 | 0.00 | 0.00 | 0.00 | 10 | 1008.6 | |
| 20260509225046 | 95 | 0.0 | 0.0 | 0.00 | 0.00 | 0.00 | 11 | 1008.7 | |
| 20260509224021 | 95 | 0.0 | 0.0 | 0.00 | 0.00 | 0.00 | 11 | 1008.8 | |
| 20260509223022 | 95 | 0.0 | 0.0 | 0.00 | 0.00 | 0.00 | 11 | 1008.9 | |
| 20260509222046 | 95 | 0.0 | 0.0 | 0.00 | 0.00 | 0.00 | 11 | 1009.0 | |
| 20260509221021 | 95 | 0.0 | 0.0 | 0.00 | 0.00 | 0.00 | 11 | 1009.1 | |
| 20260509220021 | 97 | 0.0 | 0.0 | 0.00 | 0.00 | 0.00 | 11 | 1009.4 | |
| 20260509215021 | 96 | 0.0 | 0.0 | 0.00 | 0.00 | 0.00 | 12 | 1009.6 | |
| 20260509214021 | 95 | 0.0 | 0.0 | 0.00 | 0.00 | 0.00 | 12 | 1009.4 | |
| 20260509213021 | 95 | 0.0 | 0.0 | 0.00 | 0.00 | 0.00 | 13 | 1009.5 | |
| 20260509212021 | 95 | 0.0 | 0.0 | 0.00 | 0.00 | 0.00 | 13 | 1009.8 | |
| 20260509211021 | 96 | 0.0 | 0.0 | 0.00 | 0.00 | 0.00 | 12 | 1010.1 | |
| 20260509210024 | 95 | 0.0 | 0.0 | 0.00 | 0.00 | 0.00 | 13 | 1010.3 | |
| 20260509205022 | 94 | 0.0 | 0.0 | 0.00 | 0.00 | 0.00 | 13 | 1010.6 | |
| 20260509204021 | 94 | 0.0 | 0.0 | 0.00 | 0.00 | 0.00 | 14 | 1010.8 | |
| 20260509203046 | 94 | 0.0 | 0.0 | 0.00 | 0.00 | 0.00 | 14 | 1011.0 | |
| 20260509202021 | 94 | 0.0 | 0.0 | 0.00 | 0.00 | 0.00 | 14 | 1011.3 | |
| 20260509201023 | 93 | 0.0 | 0.0 | 0.00 | 0.00 | 0.00 | 14 | 1011.4 | |
| 20260509200020 | 93 | 0.0 | 0.0 | 0.00 | 0.00 | 0.00 | 15 | 1011.7 | |
| 20260509195021 | 93 | 0.0 | 0.0 | 0.00 | 0.00 | 0.00 | 16 | 1011.8 | |
| 20260509194020 | 92 | 0.0 | 0.0 | 0.00 | 0.00 | 0.00 | 16 | 1011.8 | |
| 20260509193021 | 92 | 0.0 | 0.0 | 0.00 | 0.00 | 0.00 | 16 | 1012.0 | |
| 20260509192021 | 92 | 0.0 | 0.0 | 0.00 | 0.00 | 0.00 | 17 | 1012.3 | |
| 20260509191021 | 91 | 0.0 | 0.0 | 0.00 | 0.00 | 0.00 | 18 | 1012.5 | |
| 20260509190046 | 91 | 0.0 | 0.0 | 0.00 | 0.00 | 0.00 | 19 | 1012.7 | |
| 20260509185024 | 91 | 0.0 | 0.0 | 0.00 | 0.00 | 0.00 | 19 | 1012.9 | |
| 20260509184046 | 90 | 0.0 | 0.0 | 0.00 | 0.00 | 0.00 | 20 | 1012.8 | |
| 20260509183021 | 89 | 0.0 | 0.0 | 0.00 | 0.00 | 0.00 | 21 | 1013.0 | |
| 20260509182021 | 89 | 0.0 | 0.0 | 0.00 | 0.00 | 0.00 | 21 | 1013.1 | |
| 20260509181020 | 88 | 0.0 | 0.0 | 0.00 | 0.00 | 0.00 | 23 | 1013.3 | |
| 20260509180020 | 88 | 0.0 | 0.0 | 0.00 | 0.00 | 0.00 | 23 | 1013.5 | |
| 20260509175021 | 88 | 0.0 | 0.0 | 0.00 | 0.00 | 0.00 | 24 | 1013.5 |